[[{"header":{"parameterUnit":"m.s-1","parameterCategory":2,"la1":30.2991,"la2":30.254,"lo1":-89.0895,"lo2":-89.0444,"dy":0.0017,"dx":0.0017,"nx":28,"ny":28,"refTime":"2023-08-11T03:00:00:Z","depth":"0","parameterNumber":2,"parameterNumberName":"U-component_of_CURRENTS"},"data":[0,0,0,0,0,0,0,0,0,0,0,0,0,0,0,0,0,0,0,0,0,0,0,0,0,0,0,0,0,0,0,0,0,0,0,0,0,0,0,0,0,0,0,0,0,0,0,0,0,0,0,0,0,0,0,0,0,0,0.5259,0.526,0,0.5311,0.5311,0.5312,0.5245,0.5243,0.5241,0.5239,0.5214,0.5215,0.5216,0,0,0,0,0,0,0,0,0,0,0,0,0,0.5124,0.5126,0.5259,0.526,0.5261,0.5311,0.5311,0.5312,0.5245,0.5243,0.524,0.5238,0.5214,0.5215,0.5216,0,0,0,0,0,0,0,0,0,0,0,0,0,0.5175,0.5127,0.5259,0.5238,0.5237,0.5311,0.5311,0.5312,0.5245,0.5242,0.524,0.5237,0.5213,0.5215,0.5217,0.5286,0,0,0.5222,0.5223,0,0,0,0,0,0,0,0,0.5172,0.5179,0.524,0.5239,0.5239,0.5273,0.5255,0.5301,0.5246,0.5236,0.5239,0.5235,0.5232,0.5232,0.5242,0.5284,0.5283,0.5222,0.5223,0.5224,0.5224,0,0,0,0,0,0,0,0.5168,0.5177,0.5274,0.5241,0.5241,0.5234,0.5237,0.5263,0.5244,0.5237,0.5234,0.5249,0.523,0.5241,0.5241,0.5283,0.5222,0.5223,0.5225,0.5225,0.5434,0.5438,0,0,0,0,0,0,0.5176,0.5174,0.5272,0.5276,0.5203,0.5239,0.5243,0.5261,0.5246,0.5243,0.5252,0.5246,0.5239,0.5239,0.524,0.5305,0.5224,0.5225,0.5226,0.5429,0.5435,0.544,0,0,0,0,0,0,0.5173,0.5184,0.527,0.523,0.5241,0.5245,0.5266,0.5263,0.5265,0.5259,0.5252,0.5255,0.5237,0.5237,0.5283,0.5303,0.5226,0.5228,0.5424,0.5431,0.5437,0.5444,0,0,0,0,0,0,0.5168,0.5183,0.5199,0.5231,0.5244,0.5314,0.5269,0.5267,0.5282,0.5274,0.526,0.5255,0.5234,0.5281,0.5285,0.5304,0.5229,0.5418,0.5427,0.5435,0.5439,0.5451,0.5461,0,0,0,0,0,0.5163,0.5189,0.5199,0.5211,0.5265,0.5316,0.5322,0.531,0.5285,0.5297,0.5303,0.5255,0.5337,0.5286,0.5289,0.5309,0.5414,0.5425,0.5435,0.5433,0.5448,0.5461,0,0,0,0,0,0,0.513,0.5187,0.5197,0.5237,0.5278,0.5306,0.532,0.5321,0.5337,0.5327,0.5305,0.5304,0.5367,0.536,0.5304,0.5409,0.5372,0.5384,0.5371,0.5385,0.5396,0.539,0.523,0,0,0,0,0,0.514,0.5173,0.5227,0.5259,0.5281,0.5306,0.5325,0.5328,0.5351,0.5352,0.5351,0.5372,0.542,0.5413,0.5462,0.5499,0.5537,0.5527,0.5538,0.5546,0.5555,0.5658,0.5677,0.5473,0.5473,0.5473,0,0,0.5135,0.5172,0.519,0.5255,0.5281,0.5316,0.5307,0.5345,0.5369,0.5352,0.5381,0.5424,0.5454,0.5509,0.5533,0.5487,0.5631,0.5559,0.5565,0.5569,0.567,0.569,0.5707,0.548,0.5479,0.5478,0,0,0.5142,0.518,0.5208,0.5248,0.5306,0.5329,0.5344,0.5389,0.54,0.5456,0.5468,0.5527,0.5566,0.5596,0.5614,0.5727,0.5714,0.5742,0.5747,0.5847,0.5863,0.5877,0.5955,0.5977,0.5711,0.5711,0.5711,0,0.5134,0.5179,0.5225,0.5262,0.5286,0.5333,0.5361,0.54,0.5454,0.5473,0.5466,0.5591,0.5611,0.5685,0.5724,0.5744,0.5794,0.5671,0.5855,0.587,0.5885,0.5961,0.5985,0.5713,0.5713,0.5712,0.5712,0,0.5162,0.5198,0.5219,0.5277,0.5311,0.5351,0.5409,0.545,0.5474,0.5506,0.5603,0.5667,0.5725,0.5757,0.5762,0.588,0.5883,0.5877,0.5799,0.5905,0.598,0.6004,0.5715,0.5714,0.5714,0.5714,0,0,0.5139,0.5222,0.5227,0.5239,0.5322,0.534,0.5406,0.5467,0.549,0.5576,0.5623,0.5739,0.5775,0.5808,0.5845,0.5921,0.6071,0.5931,0.5935,0.597,0.6287,0.6176,0.6191,0.6087,0.6091,0.6094,0.6297,0,0.5144,0.5191,0.524,0.5269,0.5289,0.5353,0.5394,0.5455,0.5515,0.558,0.5681,0.5753,0.5792,0.5823,0.592,0.605,0.6136,0.6016,0.6214,0.622,0.6076,0.6216,0.5862,0.6004,0.632,0.6324,0.6327,0,0.5148,0.5176,0.5207,0.5241,0.5254,0.5282,0.5337,0.5391,0.5506,0.5555,0.5661,0.5737,0.5893,0.5903,0.6169,0.609,0.6199,0.6287,0.6296,0.6203,0.6154,0.5956,0.6035,0.5834,0.6364,0.6361,0.6358,0,0.5078,0.5139,0.515,0.517,0.5234,0.525,0.5286,0.5375,0.5417,0.5552,0.5599,0.5781,0.5874,0.6068,0.625,0.6227,0.6526,0.651,0.6515,0.6507,0.6251,0.6213,0.612,0.6701,0.6701,0.67,0.6699,0,0.5059,0.5058,0.5114,0.5122,0.5118,0.5183,0.5204,0.5271,0.5378,0.5428,0.5583,0.5666,0.5923,0.6104,0.6279,0.6472,0.6558,0.6554,0.6567,0.6246,0.6207,0.6055,0.5986,0.6708,0.6706,0.6704,0.6703,0,0.4982,0.5032,0.5031,0.5079,0.5089,0.5083,0.5143,0.5162,0.5281,0.5366,0.5412,0.5619,0.5849,0.6084,0.6388,0.6476,0.649,0.6717,0.6312,0.6273,0.6062,0.6008,0.5878,0.5729,0.6773,0.6772,0.677,0,0.4946,0.4944,0.4973,0.4961,0.4983,0.4992,0.4997,0.5103,0.5142,0.5328,0.5368,0.559,0.5723,0.6113,0.6302,0.6568,0.6413,0.6373,0.6268,0.6023,0.5976,0.5826,0.57,0.5947,0.5939,0.5933,0.5927,0,0.4859,0.4874,0.4877,0.4863,0.4857,0.4851,0.4883,0.49,0.5036,0.5112,0.5243,0.5361,0.5676,0.5753,0.6052,0.6189,0.6004,0.6251,0.6098,0.5414,0.5144,0.5011,0.5844,0.5871,0.5876,0.588,0.5884,0.5886,0.4774,0.4761,0.477,0.475,0.4724,0.4703,0.4665,0.472,0.4762,0.4826,0.5036,0.5077,0.5226,0.559,0.5689,0.5559,0.5693,0.5411,0.5403,0.5305,0.502,0.5729,0.5701,0.5706,0.5709,0.5713,0.5716,0,0.4678,0.4683,0.4651,0.4602,0.4528,0.4577,0.4567,0.4507,0.4492,0.4563,0.4641,0.464,0.4658,0.478,0.4822,0.4717,0.4577,0.4589,0.4255,0.421,0.4908,0.4723,0.4352,0.4352,0.4353,0.4353,0.4353,0.4353,0.4628,0.4593,0.4594,0.4443,0.4391,0.4248,0.423,0.4152,0.414,0.4014,0.3933,0.4016,0.4179,0.4209,0.4061,0.3994,0.3743,0.3558,0.3688,0.4104,0.4177,0.4247,0.4054,0.3549,0.3548,0.2751,0.2744,0.2739]},{"header":{"parameterUnit":"m.s-1","parameterCategory":2,"la1":30.2991,"la2":30.254,"lo1":-89.0895,"lo2":-89.0444,"dy":0.0017,"dx":0.0017,"nx":28,"ny":28,"refTime":"2023-08-11T03:00:00:Z","depth":"0","parameterNumber":3,"parameterNumberName":"V-component_of_CURRENTS"},"data":[0,0,0,0,0,0,0,0,0,0,0,0,0,0,0,0,0,0,0,0,0,0,0,0,0,0,0,0,0,0,0,0,0,0,0,0,0,0,0,0,0,0,0,0,0,0,0,0,0,0,0,0,0,0,0,0,0,0,0.0278,0.0278,0,0.0241,0.0241,0.024,0.0155,0.0153,0.0151,0.015,0.0076,0.0076,0.0075,0,0,0,0,0,0,0,0,0,0,0,0,0,0.0232,0.0233,0.0278,0.0277,0.0277,0.0241,0.024,0.024,0.0155,0.0153,0.0151,0.0149,0.0076,0.0076,0.0075,0,0,0,0,0,0,0,0,0,0,0,0,0,0.0229,0.0234,0.0278,0.0231,0.0226,0.0241,0.024,0.024,0.0156,0.0153,0.015,0.0148,0.0076,0.0076,0.0075,0.0124,0,0,0.0074,0.0073,0,0,0,0,0,0,0,0,0.0229,0.023,0.0238,0.0234,0.0229,0.02,0.0197,0.0199,0.0156,0.0182,0.015,0.0147,0.0116,0.0113,0.0111,0.012,0.0117,0.0074,0.0073,0.0073,0.0073,0,0,0,0,0,0,0,0.0229,0.0231,0.0263,0.0238,0.0232,0.0196,0.0194,0.0197,0.0163,0.018,0.0173,0.0171,0.0113,0.0112,0.0109,0.0116,0.0074,0.0073,0.0073,0.0073,0.0206,0.021,0,0,0,0,0,0,0.0241,0.0232,0.0264,0.0262,0.0223,0.02,0.0196,0.0212,0.0164,0.0154,0.0173,0.0167,0.0114,0.0109,0.0106,0.0187,0.0073,0.0073,0.0072,0.0202,0.0207,0.0211,0,0,0,0,0,0,0.024,0.0245,0.0265,0.0245,0.0245,0.0204,0.0221,0.0212,0.0208,0.0159,0.0148,0.0177,0.0112,0.0106,0.0131,0.0182,0.0072,0.0072,0.0198,0.0204,0.0209,0.0332,0,0,0,0,0,0,0.0239,0.0245,0.0269,0.0247,0.0247,0.0291,0.0224,0.0214,0.0211,0.0202,0.016,0.015,0.0109,0.0133,0.0131,0.0179,0.0071,0.0193,0.0201,0.0207,0.0323,0.0341,0.0356,0,0,0,0,0,0.0238,0.0289,0.0271,0.0275,0.0279,0.0294,0.0292,0.0251,0.0214,0.0233,0.0209,0.0151,0.0177,0.0135,0.0132,0.0181,0.0189,0.0198,0.0207,0.0315,0.0337,0.0356,0,0,0,0,0,0,0.029,0.0284,0.0264,0.0313,0.0308,0.0279,0.0301,0.0267,0.0263,0.0257,0.0196,0.0188,0.0229,0.0203,0.0158,0.0248,0.0177,0.0186,0.0261,0.0281,0.0298,0.0299,0.0071,0,0,0,0,0,0.0313,0.0345,0.0328,0.0369,0.0373,0.0338,0.034,0.0315,0.0303,0.0297,0.0268,0.0257,0.0268,0.0269,0.0272,0.0321,0.0281,0.0357,0.0374,0.0388,0.0392,0.0386,0.0402,0.024,0.024,0.024,0,0,0.0343,0.0347,0.0363,0.0381,0.0375,0.0402,0.0334,0.0355,0.0377,0.0295,0.033,0.0314,0.0296,0.0348,0.0365,0.0327,0.0418,0.0399,0.0411,0.0407,0.0397,0.0412,0.0425,0.0246,0.0245,0.0244,0,0,0.0413,0.0427,0.0466,0.0474,0.0477,0.0466,0.0475,0.0461,0.0456,0.0492,0.0444,0.0463,0.0473,0.0472,0.0472,0.0592,0.0507,0.0598,0.0679,0.0675,0.0687,0.0697,0.0673,0.068,0.0606,0.0606,0.0606,0,0.0442,0.0492,0.0482,0.052,0.0537,0.0499,0.0542,0.0549,0.0544,0.0558,0.0523,0.0559,0.0535,0.0596,0.0632,0.0627,0.0598,0.0595,0.0693,0.0702,0.071,0.0682,0.0688,0.0613,0.0612,0.0611,0.0611,0,0.0526,0.057,0.0603,0.0635,0.066,0.0698,0.0699,0.0726,0.0715,0.0707,0.0761,0.0741,0.0756,0.0764,0.0727,0.0792,0.0746,0.071,0.0629,0.0733,0.0698,0.0702,0.0623,0.062,0.0618,0.0617,0,0,0.0571,0.0643,0.0651,0.0685,0.0723,0.075,0.0816,0.0855,0.0896,0.09,0.096,0.0973,0.0945,0.0946,0.0914,0.0907,0.0936,0.0836,0.0833,0.0791,0.091,0.0856,0.0854,0.0907,0.0909,0.091,0.0864,0,0.063,0.072,0.0744,0.0836,0.0882,0.0892,0.0958,0.0993,0.1012,0.1067,0.1058,0.1102,0.1022,0.104,0.1025,0.0969,0.0951,0.095,0.0835,0.0831,0.0753,0.0859,0.08,0.0753,0.0867,0.0868,0.0868,0,0.0692,0.0746,0.0841,0.0935,0.0957,0.1009,0.1099,0.1152,0.1217,0.1236,0.1269,0.1256,0.1279,0.1191,0.1127,0.1128,0.1029,0.0965,0.0961,0.0866,0.0785,0.067,0.0754,0.0501,0.0873,0.0872,0.0872,0,0.0715,0.0815,0.0894,0.0924,0.1022,0.1074,0.1126,0.1198,0.1269,0.1344,0.1411,0.1406,0.1428,0.1328,0.1195,0.1164,0.1104,0.1044,0.0898,0.0892,0.0797,0.0781,0.0603,0.0984,0.0984,0.0984,0.0984,0,0.0767,0.083,0.0909,0.0954,0.1061,0.111,0.123,0.128,0.1387,0.1515,0.1496,0.1603,0.1459,0.1415,0.1261,0.1105,0.1153,0.0931,0.089,0.0841,0.083,0.0567,0.0474,0.0982,0.0983,0.0983,0.0983,0,0.0789,0.0837,0.0934,0.1038,0.1077,0.1151,0.13,0.1397,0.1476,0.1652,0.1695,0.1748,0.1714,0.1545,0.1389,0.1196,0.091,0.0963,0.0907,0.0861,0.0484,0.0402,0.0213,0.0135,0.0808,0.0807,0.0806,0,0.0814,0.0864,0.0985,0.1053,0.1105,0.122,0.1324,0.1431,0.1557,0.1769,0.1881,0.1901,0.198,0.1717,0.1383,0.1101,0.089,0.0806,0.0735,0.0472,0.035,0.0273,0.0216,0.0657,0.0655,0.0653,0.0651,0,0.0869,0.0904,0.0987,0.1115,0.1225,0.1366,0.1522,0.1644,0.182,0.1998,0.223,0.2312,0.207,0.1791,0.135,0.1121,0.0633,0.0757,0.0504,0.0245,0.0132,0.0034,0.0661,0.0635,0.0636,0.0638,0.0638,0.0639,0.0915,0.0977,0.1083,0.1205,0.1337,0.153,0.168,0.1887,0.2142,0.2446,0.2487,0.2616,0.2116,0.155,0.1208,0.0453,0.0537,0.0205,0.0136,0.0087,-0.0014,0.0573,0.0488,0.0489,0.049,0.049,0.0491,0,0.0986,0.1058,0.1174,0.1343,0.1503,0.1563,0.1837,0.2024,0.2367,0.2596,0.281,0.2565,0.1981,0.1325,0.037,-0.0106,-0.0266,-0.0372,-0.0517,-0.0534,-0.0015,-0.0052,-0.0281,-0.0281,-0.0281,-0.028,-0.028,-0.028,0.1032,0.1151,0.1207,0.1463,0.1593,0.1843,0.202,0.2308,0.2511,0.2774,0.2788,0.2794,0.2215,0.0616,-0.0513,-0.0746,-0.0996,-0.1083,-0.1167,-0.087,-0.0823,-0.0778,-0.084,-0.1231,-0.1232,-0.1687,-0.1692,-0.1695]}],[{"header":{"parameterUnit":"m.s-1","parameterCategory":2,"la1":30.2991,"la2":30.254,"lo1":-89.0895,"lo2":-89.0444,"dy":0.0017,"dx":0.0017,"nx":28,"ny":28,"refTime":"2023-08-11T03:00:00:Z","depth":"2","parameterNumber":2,"parameterNumberName":"U-component_of_CURRENTS"},"data":[0,0,0,0,0,0,0,0,0,0,0,0,0,0,0,0,0,0,0,0,0,0,0,0,0,0,0,0,0,0,0,0,0,0,0,0,0,0,0,0,0,0,0,0,0,0,0,0,0,0,0,0,0,0,0,0,0,0,0.3451,0.3453,0,0.3611,0.3612,0.3613,0.3785,0.3788,0.379,0.3793,0.3908,0.3908,0.3908,0,0,0,0,0,0,0,0,0,0,0,0,0,0.3239,0.3241,0.3451,0.3453,0.3456,0.361,0.3612,0.3614,0.3784,0.3788,0.3791,0.3794,0.3907,0.3908,0.3908,0,0,0,0,0,0,0,0,0,0,0,0,0,0.3353,0.3242,0.345,0.3563,0.3575,0.361,0.3612,0.3614,0.3784,0.3788,0.3792,0.3796,0.3907,0.3908,0.3908,0.3827,0,0,0.391,0.391,0,0,0,0,0,0,0,0,0.3347,0.336,0.3544,0.3555,0.3569,0.3686,0.358,0.3685,0.3782,0.3699,0.3793,0.3798,0.3829,0.3836,0.3851,0.3832,0.3837,0.391,0.3911,0.3911,0.3911,0,0,0,0,0,0,0,0.3339,0.3354,0.351,0.3546,0.3561,0.3586,0.3607,0.36,0.3734,0.3707,0.3721,0.3744,0.3836,0.385,0.3855,0.3839,0.391,0.3911,0.3911,0.3911,0.407,0.4074,0,0,0,0,0,0,0.3326,0.3347,0.3505,0.3515,0.3471,0.3587,0.3611,0.364,0.3736,0.3756,0.3741,0.3752,0.3847,0.3854,0.386,0.3982,0.3911,0.3911,0.3912,0.4066,0.4071,0.4075,0,0,0,0,0,0,0.3321,0.3339,0.3498,0.3438,0.3461,0.3587,0.3619,0.3641,0.3698,0.3762,0.3782,0.378,0.3851,0.3859,0.3926,0.398,0.3912,0.3912,0.4062,0.4068,0.4073,0.4088,0,0,0,0,0,0,0.3314,0.3336,0.3355,0.3437,0.3464,0.3564,0.3616,0.3642,0.3706,0.3723,0.3801,0.3815,0.3855,0.3925,0.3927,0.3979,0.3913,0.4057,0.4064,0.4071,0.4083,0.4094,0.4103,0,0,0,0,0,0.3306,0.3329,0.3355,0.3375,0.3485,0.3565,0.3582,0.3681,0.3704,0.3743,0.381,0.3814,0.3975,0.3927,0.3928,0.3982,0.4053,0.4062,0.4071,0.4078,0.4092,0.4103,0,0,0,0,0,0,0.3252,0.3351,0.3381,0.3435,0.3509,0.3598,0.3636,0.3679,0.3755,0.3776,0.3825,0.3844,0.3941,0.3953,0.3899,0.4062,0.4028,0.4037,0.4034,0.4046,0.4056,0.4061,0.3913,0,0,0,0,0,0.324,0.3285,0.3377,0.3419,0.3455,0.3534,0.3576,0.3642,0.3717,0.3757,0.3817,0.3891,0.3965,0.3998,0.4063,0.41,0.4144,0.4155,0.4165,0.4173,0.4186,0.4314,0.4336,0.4104,0.4104,0.4103,0,0,0.3229,0.3287,0.3314,0.341,0.3467,0.353,0.3572,0.3648,0.371,0.3747,0.3849,0.3918,0.3988,0.4082,0.4125,0.41,0.4262,0.4184,0.419,0.4199,0.4325,0.4348,0.4367,0.4109,0.4108,0.4107,0,0,0.3223,0.328,0.3316,0.338,0.3478,0.3534,0.3557,0.3663,0.3729,0.3805,0.3886,0.3989,0.4061,0.4158,0.4201,0.4292,0.4317,0.4324,0.4361,0.4484,0.4504,0.4521,0.4585,0.4609,0.432,0.432,0.432,0,0.3201,0.3271,0.3338,0.3392,0.3452,0.3535,0.3592,0.3657,0.3779,0.3837,0.3854,0.4049,0.4104,0.4239,0.4305,0.4312,0.4371,0.4294,0.4494,0.4512,0.453,0.4592,0.4617,0.4322,0.4322,0.4322,0.4322,0,0.323,0.3293,0.3321,0.342,0.3484,0.3553,0.3653,0.3733,0.38,0.3876,0.4027,0.412,0.4238,0.4291,0.432,0.449,0.4486,0.4492,0.4447,0.4553,0.4613,0.4639,0.4325,0.4324,0.4323,0.4323,0,0,0.3172,0.3311,0.3327,0.337,0.3513,0.3557,0.3671,0.3797,0.3875,0.3992,0.4108,0.4257,0.4312,0.437,0.4438,0.4558,0.4726,0.4582,0.4588,0.4618,0.4976,0.4598,0.4589,0.4772,0.4777,0.4781,0.4958,0,0.3181,0.3262,0.3351,0.3438,0.3489,0.3612,0.37,0.3822,0.394,0.4074,0.4194,0.4331,0.4336,0.4417,0.4529,0.4718,0.4801,0.4676,0.4895,0.49,0.4528,0.4609,0.4323,0.4423,0.4983,0.4987,0.4991,0,0.3192,0.3246,0.333,0.3445,0.3479,0.3552,0.3719,0.3813,0.4017,0.4104,0.4253,0.4367,0.4575,0.4553,0.4851,0.4778,0.4867,0.4977,0.4986,0.4645,0.4569,0.4418,0.4449,0.5034,0.503,0.5027,0.5024,0,0.3108,0.3231,0.3291,0.3338,0.3484,0.3555,0.3643,0.3834,0.3936,0.4156,0.4269,0.4476,0.4621,0.4796,0.4994,0.4959,0.5305,0.5271,0.4994,0.4968,0.4768,0.4711,0.5439,0.5439,0.5439,0.5438,0.5438,0,0.3088,0.3135,0.3256,0.329,0.3368,0.3488,0.3614,0.3735,0.394,0.4095,0.4273,0.4446,0.4704,0.4922,0.505,0.5086,0.5334,0.5004,0.4992,0.4756,0.4699,0.5265,0.5243,0.5445,0.5443,0.5442,0.5441,0,0.3011,0.3092,0.3158,0.3292,0.3339,0.3395,0.3585,0.368,0.3874,0.41,0.4186,0.4487,0.4735,0.4931,0.5244,0.5113,0.5233,0.5172,0.4827,0.476,0.4795,0.4773,0.4859,0.4847,0.4837,0.4828,0.4821,0,0.2987,0.3012,0.3135,0.3179,0.3256,0.336,0.3446,0.3631,0.3756,0.4138,0.4244,0.4542,0.4702,0.4909,0.4833,0.4866,0.5084,0.4505,0.4315,0.4757,0.474,0.4733,0.4724,0.4108,0.4096,0.4086,0.4078,0,0.294,0.2987,0.3037,0.3124,0.321,0.3297,0.3444,0.3513,0.3778,0.3949,0.4237,0.4407,0.4544,0.4401,0.4311,0.4304,0.4453,0.4274,0.4966,0.4203,0.4037,0.4022,0.4043,0.3988,0.3997,0.4004,0.4009,0.4012,0.291,0.2922,0.2994,0.3072,0.317,0.3249,0.328,0.344,0.358,0.3784,0.4015,0.4091,0.4095,0.3746,0.3669,0.356,0.3796,0.3649,0.369,0.374,0.3525,0.3338,0.3122,0.3125,0.3129,0.3132,0.3134,0,0.2859,0.2895,0.2945,0.3032,0.3102,0.3214,0.3295,0.3256,0.3367,0.3511,0.3629,0.3284,0.3133,0.3218,0.2868,0.2708,0.281,0.2646,0.2825,0.2912,0.299,0.2746,0.2134,0.213,0.2127,0.2125,0,0,0.2835,0.2838,0.2852,0.2945,0.3058,0.3102,0.3131,0.3067,0.3058,0.2962,0.2939,0.2995,0.3092,0.2556,0.245,0.2275,0.2605,0.2198,0.3008,0.3312,0.3388,0.3567,0.3283,0,0,0,0,0]},{"header":{"parameterUnit":"m.s-1","parameterCategory":2,"la1":30.2991,"la2":30.254,"lo1":-89.0895,"lo2":-89.0444,"dy":0.0017,"dx":0.0017,"nx":28,"ny":28,"refTime":"2023-08-11T03:00:00:Z","depth":"2","parameterNumber":3,"parameterNumberName":"V-component_of_CURRENTS"},"data":[0,0,0,0,0,0,0,0,0,0,0,0,0,0,0,0,0,0,0,0,0,0,0,0,0,0,0,0,0,0,0,0,0,0,0,0,0,0,0,0,0,0,0,0,0,0,0,0,0,0,0,0,0,0,0,0,0,0,-0.0298,-0.0299,0,-0.0406,-0.0407,-0.0408,-0.05,-0.0502,-0.0503,-0.0504,-0.0611,-0.0613,-0.0615,0,0,0,0,0,0,0,0,0,0,0,0,0,-0.0226,-0.0226,-0.0298,-0.0299,-0.0301,-0.0405,-0.0407,-0.0408,-0.05,-0.0502,-0.0503,-0.0505,-0.0611,-0.0613,-0.0615,0,0,0,0,0,0,0,0,0,0,0,0,0,-0.0285,-0.0227,-0.0297,-0.0361,-0.0369,-0.0405,-0.0407,-0.0408,-0.05,-0.0502,-0.0504,-0.0505,-0.061,-0.0613,-0.0615,-0.0592,0,0,-0.0623,-0.0624,0,0,0,0,0,0,0,0,-0.0282,-0.0287,-0.035,-0.0357,-0.0365,-0.0444,-0.0421,-0.0471,-0.0499,-0.0447,-0.0504,-0.0506,-0.0556,-0.0563,-0.0575,-0.0597,-0.0602,-0.0623,-0.0625,-0.0626,-0.0626,0,0,0,0,0,0,0,-0.0277,-0.0284,-0.0338,-0.0352,-0.0361,-0.0404,-0.0413,-0.0431,-0.0487,-0.0452,-0.0459,-0.0475,-0.056,-0.0572,-0.0578,-0.0603,-0.0623,-0.0625,-0.0627,-0.0628,-0.061,-0.0608,0,0,0,0,0,0,-0.0264,-0.0279,-0.0334,-0.0341,-0.033,-0.0403,-0.0414,-0.0414,-0.0487,-0.0501,-0.0473,-0.0479,-0.0567,-0.0575,-0.0582,-0.052,-0.0626,-0.0628,-0.0629,-0.0611,-0.0609,-0.0607,0,0,0,0,0,0,-0.0262,-0.0267,-0.033,-0.0316,-0.0327,-0.0403,-0.0402,-0.0416,-0.0443,-0.0504,-0.0518,-0.0489,-0.0569,-0.0579,-0.0587,-0.0527,-0.0629,-0.0631,-0.0614,-0.0611,-0.0608,-0.0422,0,0,0,0,0,0,-0.0259,-0.0265,-0.0252,-0.0314,-0.0328,-0.0329,-0.0401,-0.0416,-0.045,-0.0459,-0.0521,-0.0533,-0.0571,-0.0582,-0.0589,-0.0532,-0.0633,-0.0616,-0.0612,-0.0609,-0.043,-0.0413,-0.0398,0,0,0,0,0,-0.0256,-0.0212,-0.025,-0.0257,-0.0309,-0.0327,-0.0336,-0.0396,-0.0449,-0.0433,-0.0483,-0.0532,-0.0564,-0.0582,-0.0591,-0.0533,-0.0618,-0.0614,-0.0609,-0.0438,-0.0416,-0.0398,0,0,0,0,0,0,-0.0158,-0.022,-0.0262,-0.0237,-0.0276,-0.0343,-0.0328,-0.0392,-0.0421,-0.0427,-0.0507,-0.0518,-0.0503,-0.0548,-0.0568,-0.052,-0.0599,-0.0595,-0.0465,-0.0446,-0.043,-0.0371,-0.0635,0,0,0,0,0,-0.0135,-0.0124,-0.0195,-0.017,-0.0184,-0.0263,-0.028,-0.0324,-0.0366,-0.0384,-0.0435,-0.0476,-0.0487,-0.0493,-0.0515,-0.0486,-0.0529,-0.0457,-0.0441,-0.0426,-0.0386,-0.0401,-0.0382,-0.0592,-0.0592,-0.0592,0,0,-0.0089,-0.0121,-0.0115,-0.0151,-0.0183,-0.0161,-0.0275,-0.028,-0.0256,-0.0386,-0.036,-0.0422,-0.047,-0.0435,-0.0431,-0.0466,-0.0394,-0.0421,-0.0407,-0.0374,-0.0394,-0.0374,-0.0355,-0.0589,-0.059,-0.059,0,0,0.0018,-0.0019,0.0023,0.0003,-0.004,-0.0077,-0.008,-0.0147,-0.0168,-0.0164,-0.0244,-0.0265,-0.0299,-0.0307,-0.0319,-0.0225,-0.0312,-0.0249,-0.0107,-0.0123,-0.0105,-0.009,-0.0133,-0.0123,-0.0234,-0.0233,-0.0233,0,0.0076,0.011,0.0036,0.0074,0.0082,-0.0032,0.0025,0.0002,-0.006,-0.0051,-0.0125,-0.0164,-0.022,-0.0162,-0.0135,-0.0181,-0.0224,-0.0175,-0.0098,-0.0084,-0.0071,-0.012,-0.0111,-0.0224,-0.0225,-0.0226,-0.0227,0,0.0202,0.0232,0.0265,0.0275,0.0281,0.0313,0.0265,0.0267,0.0209,0.0174,0.0186,0.0097,0.0065,0.0049,-0.0013,0.0055,-0.0017,-0.008,-0.014,-0.0038,-0.0097,-0.0091,-0.021,-0.0213,-0.0216,-0.0219,0,0,0.0332,0.0348,0.0362,0.0392,0.0387,0.0403,0.0471,0.0493,0.0532,0.0465,0.0517,0.047,0.037,0.035,0.0251,0.0249,0.0277,0.0134,0.0128,0.0106,0.0223,0.0076,0.0066,0.022,0.0222,0.0224,0.0141,0,0.0453,0.0553,0.054,0.0657,0.0703,0.0659,0.0729,0.0737,0.0711,0.0734,0.0653,0.0644,0.0498,0.0462,0.0442,0.0327,0.0304,0.0305,0.0116,0.0111,-0.002,0.0073,0.011,0.0031,0.0146,0.0147,0.0147,0,0.0581,0.0628,0.0746,0.0824,0.0845,0.0896,0.0975,0.1018,0.1034,0.1012,0.0984,0.0886,0.0866,0.0708,0.0585,0.0585,0.0424,0.0327,0.032,0.0131,-0.0024,-0.0052,0.0035,0.0155,0.0155,0.0154,0.0154,0,0.0678,0.0782,0.0875,0.0899,0.0965,0.1021,0.1057,0.1096,0.1142,0.1164,0.1188,0.1123,0.1065,0.0916,0.0683,0.0628,0.0549,0.0431,0.0152,0.0137,0.011,0.0088,0.0348,0.0349,0.0349,0.0349,0.0349,0,0.08,0.0878,0.0914,0.096,0.1078,0.1101,0.1214,0.1243,0.1298,0.1392,0.1298,0.1344,0.1113,0.1017,0.0791,0.0507,0.0612,0.0209,0.0125,0.0168,0.0154,0.0212,0.0198,0.0346,0.0346,0.0347,0.0348,0,0.0869,0.0902,0.1,0.1082,0.1111,0.1181,0.1276,0.1359,0.1402,0.1521,0.1532,0.1503,0.1373,0.1138,0.0902,0.0618,0.0389,0.0251,0.0302,0.0223,-0.0051,-0.0055,-0.0083,-0.0088,-0.0093,-0.0097,-0.01,0,0.0898,0.0952,0.1053,0.1104,0.1131,0.1226,0.1302,0.1382,0.1485,0.1632,0.1715,0.1633,0.1587,0.1188,0.075,0.0338,0.0327,0.0043,-0.0075,-0.0006,-0.0085,-0.0082,-0.008,-0.004,-0.0042,-0.0044,-0.0046,0,0.0936,0.0964,0.1036,0.1136,0.1219,0.1338,0.1462,0.1575,0.1716,0.1855,0.2024,0.2004,0.1584,0.1173,0.0565,0.0293,0.0111,-0.0026,0.0107,0.0036,0.002,-0.0055,-0.005,-0.0064,-0.0062,-0.0061,-0.006,-0.0059,0.0933,0.0987,0.1067,0.1171,0.1276,0.1448,0.1591,0.1774,0.1995,0.2183,0.2171,0.2103,0.1607,0.0773,0.0372,-0.0073,-0.0109,-0.0297,-0.0283,-0.0268,-0.0276,-0.0302,-0.0448,-0.0449,-0.0449,-0.0449,-0.0449,0,0.0925,0.0992,0.1093,0.1236,0.1366,0.1424,0.17,0.1859,0.217,0.2238,0.2306,0.1802,0.1309,0.0823,0.0107,-0.0364,-0.0319,-0.0455,-0.0288,-0.0271,-0.0255,-0.0254,-0.0425,-0.0425,-0.0426,-0.0426,0,0,0.0919,0.1014,0.1088,0.128,0.1385,0.161,0.1797,0.2044,0.2175,0.2264,0.2177,0.1895,0.1335,0.0806,0.0271,-0.0061,-0.0056,-0.012,-0.0107,0.0169,0.0191,-0.0149,-0.013,0,0,0,0,0]}],[{"header":{"parameterUnit":"m.s-1","parameterCategory":2,"la1":30.2991,"la2":30.254,"lo1":-89.0895,"lo2":-89.0444,"dy":0.0017,"dx":0.0017,"nx":28,"ny":28,"refTime":"2023-08-11T03:00:00:Z","depth":"4","parameterNumber":2,"parameterNumberName":"U-component_of_CURRENTS"},"data":[0,0,0,0,0,0,0,0,0,0,0,0,0,0,0,0,0,0,0,0,0,0,0,0,0,0,0,0,0,0,0,0,0,0,0,0,0,0,0,0,0,0,0,0,0,0,0,0,0,0,0,0,0,0,0,0,0,0,0.0979,0.098,0,0.1054,0.1054,0.1055,0.106,0.1059,0.1059,0.1058,0.1108,0.111,0.1112,0,0,0,0,0,0,0,0,0,0,0,0,0,0.0861,0.0863,0.0979,0.098,0.0981,0.1054,0.1054,0.1055,0.106,0.1059,0.1059,0.1058,0.1107,0.1109,0.1112,0,0,0,0,0,0,0,0,0,0,0,0,0,0.0919,0.0863,0.0978,0.0994,0.0996,0.1053,0.1054,0.1055,0.106,0.1059,0.1059,0.1058,0.1106,0.1109,0.1112,0.1148,0,0,0.1121,0.1122,0,0,0,0,0,0,0,0,0.0916,0.0923,0.0991,0.0993,0.0996,0.1049,0.1031,0.1086,0.1061,0.1034,0.1058,0.1057,0.1088,0.1092,0.1105,0.1151,0.1153,0.1121,0.1123,0.1124,0.1125,0,0,0,0,0,0,0,0.0912,0.092,0.1006,0.0992,0.0995,0.1005,0.1011,0.1042,0.1063,0.1036,0.1037,0.1049,0.1089,0.1103,0.1107,0.1153,0.1121,0.1123,0.1125,0.1126,0.1325,0.1328,0,0,0,0,0,0,0.0908,0.0917,0.1004,0.1008,0.0955,0.1008,0.1015,0.1031,0.1063,0.1068,0.105,0.1049,0.1098,0.1103,0.1108,0.1218,0.1124,0.1127,0.1128,0.1321,0.1325,0.1329,0,0,0,0,0,0,0.0905,0.0915,0.1001,0.0966,0.0978,0.1011,0.1028,0.1033,0.1085,0.1075,0.1078,0.1102,0.1098,0.1104,0.1161,0.1217,0.1128,0.113,0.1317,0.1322,0.1327,0.1396,0,0,0,0,0,0,0.0901,0.0914,0.0932,0.0966,0.0979,0.1052,0.103,0.1035,0.1093,0.1093,0.112,0.1121,0.1097,0.1157,0.1164,0.122,0.1133,0.1312,0.1319,0.1326,0.139,0.1403,0.1415,0,0,0,0,0,0.0897,0.0911,0.0932,0.0943,0.1001,0.1054,0.1062,0.108,0.1097,0.1124,0.1144,0.1122,0.1205,0.1162,0.1169,0.1227,0.1309,0.1317,0.1325,0.1384,0.1401,0.1415,0,0,0,0,0,0,0.0867,0.0915,0.0938,0.0967,0.1021,0.1056,0.1082,0.1115,0.1156,0.1165,0.1159,0.1162,0.1215,0.1234,0.1188,0.131,0.1259,0.1268,0.1301,0.1317,0.133,0.1339,0.1135,0,0,0,0,0,0.0873,0.0894,0.0955,0.098,0.1015,0.1068,0.1098,0.1123,0.1161,0.1181,0.1203,0.1235,0.1253,0.1295,0.1296,0.1387,0.1362,0.1437,0.1449,0.146,0.1477,0.144,0.1449,0.1356,0.1355,0.1355,0,0,0.0878,0.0896,0.0918,0.0976,0.1019,0.1069,0.1083,0.1146,0.1189,0.118,0.125,0.1261,0.1278,0.134,0.1374,0.1372,0.1487,0.147,0.1478,0.149,0.1449,0.1457,0.1465,0.1361,0.136,0.1359,0,0,0.0881,0.0915,0.0945,0.099,0.1062,0.1091,0.1126,0.1201,0.124,0.1316,0.1305,0.1374,0.1421,0.1452,0.147,0.1578,0.1522,0.1587,0.1696,0.166,0.1666,0.167,0.1688,0.1694,0.1632,0.1632,0.1632,0,0.0878,0.0926,0.0965,0.1004,0.105,0.111,0.1173,0.1215,0.1297,0.1347,0.1345,0.1455,0.1475,0.1564,0.1602,0.1606,0.1577,0.1624,0.167,0.1674,0.1678,0.1694,0.17,0.1636,0.1636,0.1635,0.1635,0,0.091,0.0959,0.0983,0.1047,0.1102,0.1162,0.1236,0.1298,0.136,0.1411,0.152,0.1565,0.1655,0.1671,0.1671,0.1742,0.1712,0.1649,0.1615,0.169,0.1705,0.1709,0.1642,0.1641,0.1639,0.1638,0,0,0.0873,0.0984,0.0997,0.105,0.1139,0.1189,0.1266,0.1368,0.1444,0.1528,0.1638,0.1717,0.1786,0.1816,0.185,0.1848,0.1871,0.1781,0.1777,0.1774,0.1814,0.1727,0.1723,0.1781,0.1781,0.1781,0.1827,0,0.0894,0.0974,0.1031,0.1126,0.119,0.1266,0.1327,0.1421,0.1518,0.1625,0.1716,0.1821,0.183,0.1913,0.1914,0.1865,0.1878,0.1867,0.1766,0.1766,0.1654,0.1723,0.1783,0.1829,0.183,0.1831,0.1831,0,0.0913,0.0966,0.1076,0.1186,0.1225,0.1292,0.1435,0.151,0.1649,0.1733,0.1877,0.1939,0.2055,0.2005,0.2008,0.1988,0.193,0.187,0.1868,0.1762,0.1683,0.1733,0.1837,0.1837,0.1836,0.1836,0.1835,0,0.0873,0.0995,0.1087,0.1128,0.1259,0.1339,0.142,0.1563,0.1651,0.1849,0.1951,0.2056,0.2151,0.2083,0.2048,0.2017,0.1967,0.1908,0.1785,0.178,0.1808,0.1802,0.1867,0.1866,0.1866,0.1866,0.1866,0,0.0857,0.0927,0.1091,0.1137,0.1246,0.136,0.1498,0.1598,0.1764,0.1857,0.2048,0.2133,0.2153,0.215,0.207,0.1965,0.2006,0.1822,0.1778,0.1847,0.1845,0.1813,0.1806,0.1868,0.1868,0.1867,0.1867,0,0.0793,0.09,0.099,0.1158,0.1237,0.1316,0.1519,0.1598,0.1802,0.194,0.2017,0.2191,0.2204,0.2206,0.2099,0.2009,0.1898,0.1835,0.1974,0.1933,0.1739,0.1737,0.173,0.1727,0.1724,0.1722,0.1721,0,0.0759,0.0819,0.0992,0.1052,0.1144,0.1299,0.1389,0.1593,0.168,0.1931,0.1966,0.2104,0.2179,0.2039,0.2005,0.1906,0.1843,0.1817,0.1737,0.1764,0.1722,0.1723,0.1724,0.1717,0.1716,0.1716,0.1715,0,0.0694,0.0768,0.0829,0.0963,0.108,0.1201,0.1363,0.1404,0.1612,0.1805,0.1903,0.1956,0.1978,0.1942,0.1905,0.1798,0.1853,0.1791,0.1794,0.1719,0.1748,0.1709,0.1713,0.1706,0.1708,0.1708,0.1709,0,0.0629,0.0635,0.0746,0.0846,0.0981,0.1089,0.1174,0.1296,0.1419,0.1685,0.1669,0.1825,0.1929,0.1882,0.181,0.1759,0.1708,0.1628,0.1638,0.1648,0.1592,0.1615,0.1511,0,0,0,0,0,0.058,0.0593,0.0645,0.0748,0.0867,0.0968,0.1152,0.1234,0.141,0.1435,0.1568,0.159,0.1615,0.1679,0.1597,0.1714,0.1672,0.1609,0.1575,0.166,0.167,0.1607,0,0,0,0,0,0,0.0543,0.059,0.0599,0.0675,0.0716,0.0863,0.0959,0.1071,0.1112,0.129,0.1313,0.1475,0.1507,0.1624,0.1556,0.1566,0.1509,0.1688,0.1683,0.1654,0.1663,0.1671,0.161,0,0,0,0,0]},{"header":{"parameterUnit":"m.s-1","parameterCategory":2,"la1":30.2991,"la2":30.254,"lo1":-89.0895,"lo2":-89.0444,"dy":0.0017,"dx":0.0017,"nx":28,"ny":28,"refTime":"2023-08-11T03:00:00:Z","depth":"4","parameterNumber":3,"parameterNumberName":"V-component_of_CURRENTS"},"data":[0,0,0,0,0,0,0,0,0,0,0,0,0,0,0,0,0,0,0,0,0,0,0,0,0,0,0,0,0,0,0,0,0,0,0,0,0,0,0,0,0,0,0,0,0,0,0,0,0,0,0,0,0,0,0,0,0,0,0.0217,0.0216,0,0.0134,0.0133,0.0132,0.0109,0.0109,0.011,0.0111,-0.0017,-0.0021,-0.0025,0,0,0,0,0,0,0,0,0,0,0,0,0,0.0263,0.0262,0.0217,0.0216,0.0215,0.0134,0.0133,0.0131,0.0109,0.011,0.011,0.0111,-0.0015,-0.002,-0.0025,0,0,0,0,0,0,0,0,0,0,0,0,0,0.0216,0.0262,0.0217,0.0196,0.0193,0.0134,0.0133,0.0131,0.0109,0.011,0.0111,0.0112,-0.0014,-0.002,-0.0026,-0.0083,0,0,-0.0044,-0.0047,0,0,0,0,0,0,0,0,0.0218,0.0214,0.02,0.0197,0.0194,0.0135,0.0102,0.0058,0.0108,0.0138,0.0111,0.0112,0.0031,0.0021,0.0,-0.0089,-0.0095,-0.0045,-0.0048,-0.0051,-0.0053,0,0,0,0,0,0,0,0.0222,0.0217,0.0182,0.0199,0.0195,0.0159,0.0154,0.0093,0.0077,0.0136,0.0134,0.0128,0.0029,0.0006,-0.0003,-0.0097,-0.0044,-0.005,-0.0053,-0.0056,-0.0252,-0.0253,0,0,0,0,0,0,0.024,0.022,0.0185,0.018,0.0212,0.0158,0.0152,0.0151,0.0079,0.007,0.0128,0.0128,0.0016,0.0004,-0.0007,-0.0077,-0.0051,-0.0056,-0.006,-0.025,-0.0252,-0.0254,0,0,0,0,0,0,0.0242,0.0238,0.0188,0.0199,0.0191,0.0157,0.0155,0.0149,0.0132,0.0074,0.0063,0.0119,0.0017,0.0001,-0.0064,-0.0082,-0.0059,-0.0065,-0.0249,-0.0251,-0.0253,-0.022,0,0,0,0,0,0,0.0243,0.0239,0.0244,0.0201,0.0191,0.0157,0.0154,0.0147,0.0127,0.0127,0.0062,0.0051,0.0016,-0.0054,-0.007,-0.009,-0.0069,-0.0246,-0.025,-0.0252,-0.0219,-0.0221,-0.0222,0,0,0,0,0,0.0245,0.0244,0.0245,0.024,0.0199,0.0157,0.0148,0.0125,0.0126,0.0114,0.0068,0.0053,-0.0084,-0.0061,-0.0078,-0.0101,-0.0245,-0.0249,-0.0252,-0.0218,-0.022,-0.0222,0,0,0,0,0,0,0.0257,0.0241,0.024,0.0233,0.0203,0.0154,0.0142,0.0126,0.008,0.0081,0.003,0.0014,-0.0047,-0.0086,-0.0059,-0.0169,-0.0167,-0.0174,-0.0135,-0.0138,-0.0139,-0.0118,-0.0074,0,0,0,0,0,0.0266,0.0269,0.0236,0.0231,0.0219,0.0182,0.0163,0.0147,0.0102,0.0084,0.0036,-0.0021,-0.0079,-0.0114,-0.0169,-0.0235,-0.0269,-0.0263,-0.0264,-0.0265,-0.0262,-0.0341,-0.0348,-0.0266,-0.0266,-0.0266,0,0,0.0269,0.0261,0.0262,0.0235,0.0212,0.0185,0.0173,0.0146,0.0121,0.0074,0.0022,-0.0027,-0.0097,-0.0163,-0.0195,-0.0197,-0.0306,-0.027,-0.027,-0.0266,-0.0345,-0.0353,-0.036,-0.0268,-0.0268,-0.0267,0,0,0.027,0.027,0.027,0.0247,0.0218,0.0191,0.0187,0.0138,0.0117,0.0057,0.002,-0.0041,-0.0133,-0.0186,-0.0225,-0.0275,-0.0307,-0.0293,-0.0292,-0.0368,-0.0374,-0.0381,-0.0421,-0.0431,-0.03,-0.0299,-0.0299,0,0.0276,0.0273,0.0259,0.0244,0.0229,0.0197,0.018,0.0144,0.0078,0.0053,0.0046,-0.0093,-0.0146,-0.0231,-0.0244,-0.0278,-0.0312,-0.0272,-0.0367,-0.0375,-0.0382,-0.0421,-0.0433,-0.0298,-0.0298,-0.0299,-0.0299,0,0.0267,0.0267,0.0261,0.0242,0.0218,0.0199,0.0156,0.0124,0.0095,0.0053,-0.0026,-0.0105,-0.0181,-0.0216,-0.0245,-0.0327,-0.033,-0.0352,-0.0353,-0.0388,-0.0427,-0.044,-0.0297,-0.0297,-0.0297,-0.0298,0,0,0.0278,0.0263,0.0263,0.0264,0.0221,0.0203,0.016,0.011,0.0086,0.0011,-0.0036,-0.0142,-0.0171,-0.0218,-0.0268,-0.034,-0.0415,-0.0362,-0.0366,-0.0383,-0.0559,-0.0489,-0.0497,-0.0453,-0.0455,-0.0457,-0.0561,0,0.0279,0.0277,0.0257,0.0245,0.0241,0.02,0.0163,0.0112,0.0065,0.0007,-0.0079,-0.0136,-0.0176,-0.0201,-0.0285,-0.0388,-0.045,-0.0383,-0.0539,-0.0543,-0.0462,-0.051,-0.0465,-0.057,-0.0573,-0.0575,-0.0577,0,0.0274,0.0283,0.0285,0.0268,0.026,0.0246,0.0202,0.0164,0.0075,0.0037,-0.004,-0.01,-0.0211,-0.023,-0.0422,-0.0377,-0.0457,-0.0534,-0.0541,-0.0495,-0.0497,-0.0536,-0.0601,-0.0599,-0.0597,-0.0595,-0.0594,0,0.0306,0.0296,0.0312,0.0305,0.0276,0.0272,0.0253,0.0182,0.0161,0.0076,0.0065,-0.0094,-0.0145,-0.0297,-0.0442,-0.0438,-0.0645,-0.0663,-0.0674,-0.0669,-0.0712,-0.0705,-0.0786,-0.0786,-0.0785,-0.0785,-0.0785,0,0.0315,0.0325,0.0341,0.0351,0.0367,0.0328,0.0326,0.0281,0.0225,0.02,0.0108,0.0063,-0.0163,-0.0299,-0.0445,-0.0593,-0.0649,-0.0676,-0.0699,-0.0695,-0.0684,-0.072,-0.0711,-0.0789,-0.0788,-0.0787,-0.0787,0,0.0335,0.0345,0.0365,0.0373,0.0388,0.0401,0.0404,0.0391,0.0354,0.0325,0.0312,0.0163,-0.0011,-0.0217,-0.0476,-0.0562,-0.0733,-0.0762,-0.0721,-0.0739,-0.0703,-0.0692,-0.0796,-0.0794,-0.0793,-0.0792,-0.0791,0,0.0339,0.0361,0.0405,0.0432,0.0447,0.0476,0.049,0.046,0.045,0.0386,0.0371,0.0227,0.011,-0.0184,-0.042,-0.0686,-0.0707,-0.0773,-0.0759,-0.0696,-0.0709,-0.0699,-0.069,-0.0789,-0.0789,-0.0789,-0.0788,0,0.0349,0.0374,0.0393,0.0471,0.0514,0.0555,0.0581,0.0576,0.053,0.0518,0.0436,0.0293,0.0105,-0.0161,-0.0353,-0.055,-0.0733,-0.0761,-0.0765,-0.0753,-0.069,-0.0701,-0.0693,-0.0784,-0.0785,-0.0785,-0.0785,0,0.0355,0.0369,0.0421,0.0483,0.0553,0.0609,0.0611,0.0606,0.0599,0.0527,0.0488,0.0303,0.0164,-0.0089,-0.0286,-0.0457,-0.0496,-0.053,-0.0546,-0.0554,-0.0449,-0.0331,-0.034,0,0,0,0,0,0.0363,0.0385,0.0431,0.0498,0.0577,0.0627,0.0657,0.0644,0.0609,0.0575,0.0535,0.0368,0.0108,-0.0024,-0.0182,-0.0284,-0.0546,-0.0473,-0.0598,-0.0761,-0.0766,-0.0677,0,0,0,0,0,0,0.0358,0.0406,0.0424,0.0525,0.0573,0.066,0.0678,0.0649,0.062,0.0567,0.042,0.037,0.0093,0.0204,-0.0172,-0.0227,-0.0316,-0.0601,-0.0603,-0.0758,-0.0762,-0.0766,-0.0677,0,0,0,0,0]}]]